START_TIME,STEP,MOV.,M29,t_acc.,H22,t_acc.,H26,t_acc.,H30,t_acc.
1979-07-26 03:00:31.260 ,1,0,0.,24.0,0.,24.0,0.,24.0,0.,24.0
1979-07-26 03:00:55.260 ,2,1,0.,24.0,0.,24.0,0.,24.0,0.,24.0
1979-07-26 03:01:19.260 ,2,0,1.,24.0,0.,24.0,0.,24.0,0.,24.0
1979-07-26 03:01:43.260 ,3,1,0.,24.0,0.,24.0,0.,24.0,0.,24.0
1979-07-26 03:02:07.260 ,3,0,0.,24.0,0.,24.0,0.,24.0,0.,24.0
1979-07-26 03:02:31.260 ,4,1,0.,24.0,0.,24.0,0.,24.0,0.,24.0
1979-07-26 03:02:55.260 ,4,0,0.,24.0,0.,24.0,0.,24.0,0.,24.0
1979-07-26 03:03:19.260 ,5,1,0.,24.0,0.,24.0,0.,24.0,0.,24.0
1979-07-26 03:03:43.260 ,5,0,0.,24.0,0.,24.0,0.,24.0,0.,24.0
1979-07-26 03:04:07.260 ,6,1,0.,24.0,0.,24.0,0.,24.0,0.,24.0
1979-07-26 03:04:31.260 ,6,0,0.,24.0,0.,24.0,0.,24.0,0.,24.0
1979-07-26 03:04:55.260 ,7,1,0.,24.0,0.,24.0,0.,24.0,0.,24.0
1979-07-26 03:05:19.260 ,7,0,0.,24.0,0.,24.0,0.,24.0,0.,24.0
1979-07-26 03:05:43.260 ,7,1,0.,24.0,0.,24.0,0.,24.0,0.,24.0
1979-07-26 03:06:07.260 ,7,0,0.,24.0,0.,24.0,0.,24.0,0.,24.0
1979-07-26 03:06:31.260 ,6,1,0.,24.0,0.,24.0,0.,24.0,0.,24.0
1979-07-26 03:06:55.260 ,6,0,0.,24.0,0.,24.0,0.,24.0,0.,24.0
1979-07-26 03:07:19.260 ,5,1,0.,24.0,0.,24.0,0.,24.0,0.,24.0
1979-07-26 03:07:43.260 ,5,0,0.,24.0,0.,24.0,0.,24.0,0.,24.0
1979-07-26 03:08:07.260 ,4,1,0.,24.0,0.,24.0,0.,24.0,0.,24.0
1979-07-26 03:08:31.260 ,4,0,0.,24.0,0.,24.0,0.,24.0,0.,24.0
1979-07-26 03:08:55.260 ,3,1,0.,24.0,0.,24.0,0.,24.0,0.,24.0
1979-07-26 03:09:19.260 ,3,0,0.,24.0,0.,24.0,0.,24.0,0.,24.0
1979-07-26 03:09:43.260 ,2,1,0.,24.0,0.,24.0,0.,24.0,0.,24.0
1979-07-26 03:10:07.260 ,2,0,0.,24.0,0.,24.0,0.,24.0,0.,24.0
1979-07-26 03:10:31.260 ,1,1,0.,24.0,0.,24.0,0.,24.0,0.,24.0
1979-07-26 03:10:55.260 ,1,0,0.,24.0,0.,24.0,0.,24.0,0.,24.0
1979-07-26 03:11:19.260 ,0,1,0.,24.0,0.,24.0,0.,24.0,0.,24.0
1979-07-26 03:11:43.260 ,0,0,0.,24.0,0.,24.0,0.,24.0,0.,24.0
1979-07-26 03:12:07.260 ,0,1,0.,24.0,0.,24.0,0.,24.0,0.,24.0
1979-07-26 03:12:31.260 ,0,0,0.,24.0,0.,24.0,0.,24.0,0.,24.0
1979-07-26 03:12:55.260 ,1,1,0.,24.0,0.,24.0,0.,24.0,0.,24.0
1979-07-26 03:13:19.260 ,1,0,0.,24.0,0.,24.0,0.,24.0,0.,24.0
1979-07-26 03:13:43.260 ,2,1,0.,24.0,0.,24.0,0.,24.0,0.,24.0
1979-07-26 03:14:07.260 ,2,0,0.,24.0,0.,24.0,0.,24.0,0.,24.0
1979-07-26 03:14:31.260 ,3,1,0.,24.0,0.,24.0,0.,24.0,0.,24.0
1979-07-26 03:14:55.260 ,3,0,0.,24.0,0.,24.0,0.,24.0,0.,24.0
1979-07-26 03:15:19.260 ,4,1,0.,24.0,0.,24.0,0.,24.0,0.,24.0
1979-07-26 03:15:43.260 ,4,0,0.,24.0,0.,24.0,0.,24.0,0.,24.0
1979-07-26 03:16:07.260 ,5,1,0.,24.0,0.,24.0,0.,24.0,0.,24.0
1979-07-26 03:16:31.260 ,5,0,0.,24.0,0.,24.0,0.,24.0,0.,24.0
1979-07-26 03:16:55.260 ,6,1,0.,24.0,0.,24.0,0.,24.0,0.,24.0
1979-07-26 03:17:19.260 ,6,0,0.,24.0,0.,24.0,0.,24.0,0.,24.0
1979-07-26 03:17:43.260 ,7,1,0.,24.0,0.,24.0,0.,24.0,0.,24.0
1979-07-26 03:18:07.260 ,7,0,0.,24.0,0.,24.0,0.,24.0,0.,24.0
1979-07-26 03:18:31.260 ,7,1,0.,24.0,0.,24.0,0.,24.0,0.,24.0
1979-07-26 03:18:55.260 ,7,0,0.,24.0,0.,24.0,0.,24.0,0.,24.0
1979-07-26 03:19:19.260 ,6,1,0.,24.0,0.,24.0,0.,24.0,0.,24.0
1979-07-26 03:19:43.260 ,6,0,0.,24.0,0.,24.0,0.,24.0,0.,24.0
1979-07-26 03:20:07.260 ,5,1,0.,24.0,0.,24.0,0.,24.0,0.,24.0
1979-07-26 03:20:31.260 ,5,0,0.,24.0,0.,24.0,0.,24.0,0.,24.0
1979-07-26 03:20:55.260 ,4,1,0.,24.0,0.,24.0,0.,24.0,0.,24.0
1979-07-26 03:21:19.260 ,4,0,0.,24.0,0.,24.0,0.,24.0,0.,24.0
1979-07-26 03:21:43.260 ,3,1,0.,24.0,0.,24.0,0.,24.0,0.,24.0
1979-07-26 03:22:07.260 ,3,0,0.,24.0,0.,24.0,0.,24.0,0.,24.0
1979-07-26 03:22:31.260 ,2,1,0.,24.0,0.,24.0,0.,24.0,0.,24.0
1979-07-26 03:22:55.260 ,2,0,0.,24.0,0.,24.0,0.,24.0,0.,24.0
1979-07-26 03:23:19.260 ,1,1,0.,24.0,0.,24.0,0.,24.0,0.,24.0
1979-07-26 03:23:43.260 ,1,0,0.,24.0,0.,24.0,0.,24.0,0.,24.0
1979-07-26 03:24:07.260 ,0,1,0.,24.0,0.,24.0,0.,24.0,0.,24.0
1979-07-26 03:24:31.260 ,0,0,0.,24.0,0.,24.0,0.,24.0,0.,24.0
1979-07-26 03:24:55.260 ,0,1,0.,24.0,0.,24.0,0.,24.0,0.,24.0
1979-07-26 03:25:19.260 ,0,0,0.,24.0,0.,24.0,0.,24.0,0.,24.0
1979-07-26 03:25:43.260 ,1,1,0.,24.0,0.,24.0,0.,24.0,0.,24.0
1979-07-26 03:26:07.260 ,1,0,0.,24.0,0.,24.0,0.,24.0,0.,24.0
1979-07-26 03:26:31.260 ,2,1,0.,24.0,0.,24.0,0.,24.0,0.,24.0
1979-07-26 03:26:55.260 ,2,0,0.,24.0,0.,24.0,0.,24.0,0.,24.0
1979-07-26 03:27:19.260 ,3,1,0.,24.0,0.,24.0,0.,24.0,0.,24.0
1979-07-26 03:27:43.260 ,3,0,0.,24.0,0.,24.0,0.,24.0,0.,24.0
1979-07-26 03:28:07.260 ,4,1,0.,24.0,0.,24.0,0.,24.0,0.,24.0
1979-07-26 03:28:31.260 ,4,0,0.,24.0,0.,24.0,0.,24.0,0.,24.0
1979-07-26 03:28:55.260 ,5,1,0.,24.0,0.,24.0,0.,24.0,0.,24.0
1979-07-26 03:29:19.260 ,5,0,0.,24.0,0.,24.0,0.,24.0,0.,24.0
1979-07-26 03:29:43.260 ,6,1,0.,24.0,0.,24.0,0.,24.0,0.,24.0
1979-07-26 03:30:07.260 ,6,0,0.,24.0,0.,24.0,0.,24.0,0.,24.0
1979-07-26 03:30:31.260 ,7,0,0.,24.0,0.,24.0,0.,24.0,0.,24.0
1979-07-26 03:30:55.260 ,7,0,0.,24.0,0.,24.0,0.,24.0,0.,24.0
1979-07-26 03:31:19.260 ,5,1,0.,24.0,0.,24.0,0.,24.0,0.,24.0
1979-07-26 03:31:43.260 ,1,1,0.,24.0,0.,24.0,0.,24.0,0.,24.0
1979-07-26 03:32:07.260 ,2,1,0.,24.0,0.,24.0,0.,24.0,0.,24.0
1979-07-26 03:32:31.260 ,6,1,0.,24.0,0.,24.0,0.,24.0,0.,24.0
1979-07-26 03:32:55.260 ,5,1,0.,24.0,0.,24.0,0.,24.0,0.,24.0
1979-07-26 03:33:19.260 ,1,1,0.,24.0,0.,24.0,0.,24.0,0.,24.0
1979-07-26 03:33:43.260 ,2,1,0.,24.0,0.,24.0,0.,24.0,0.,24.0
1979-07-26 03:34:07.260 ,6,1,0.,24.0,0.,24.0,0.,24.0,0.,24.0
1979-07-26 03:34:31.260 ,5,1,0.,24.0,0.,24.0,0.,24.0,0.,24.0
1979-07-26 03:34:55.260 ,1,1,0.,24.0,0.,24.0,0.,24.0,0.,24.0
1979-07-26 03:35:19.260 ,2,1,0.,24.0,0.,24.0,0.,24.0,0.,24.0
1979-07-26 03:35:43.260 ,6,1,0.,24.0,0.,24.0,0.,24.0,0.,24.0
1979-07-26 03:36:07.260 ,5,1,0.,24.0,0.,24.0,0.,24.0,0.,24.0
1979-07-26 03:36:31.260 ,1,1,0.,24.0,0.,24.0,0.,24.0,0.,24.0
1979-07-26 03:36:55.260 ,2,1,0.,24.0,0.,24.0,0.,24.0,0.,24.0
1979-07-26 03:37:19.260 ,6,1,0.,24.0,0.,24.0,0.,24.0,0.,24.0
1979-07-26 03:37:43.260 ,5,1,0.,24.0,0.,24.0,0.,24.0,0.,24.0
1979-07-26 03:38:07.260 ,1,1,0.,24.0,0.,24.0,0.,24.0,0.,24.0
1979-07-26 03:38:31.260 ,2,1,0.,24.0,0.,24.0,0.,24.0,0.,24.0
1979-07-26 03:38:55.260 ,6,1,0.,24.0,0.,24.0,0.,24.0,0.,24.0
1979-07-26 03:39:19.260 ,5,1,0.,24.0,0.,24.0,0.,24.0,0.,24.0
1979-07-26 03:39:43.260 ,1,1,0.,24.0,0.,24.0,0.,24.0,0.,24.0
1979-07-26 03:40:07.260 ,2,1,0.,24.0,0.,24.0,0.,24.0,0.,24.0
1979-07-26 03:40:31.260 ,6,1,0.,24.0,0.,24.0,0.,24.0,0.,24.0
1979-07-26 03:40:55.260 ,5,1,0.,24.0,0.,24.0,0.,24.0,0.,24.0
1979-07-26 03:41:19.260 ,1,1,0.,24.0,0.,24.0,0.,24.0,0.,24.0
1979-07-26 03:41:43.260 ,0,0,0.,24.0,0.,24.0,0.,24.0,0.,24.0
1979-07-26 03:42:07.260 ,0,0,0.,24.0,0.,24.0,0.,24.0,0.,24.0
1979-07-26 03:42:31.260 ,5,1,0.,24.0,0.,24.0,0.,24.0,0.,24.0
1979-07-26 03:42:55.260 ,5,0,0.,24.0,0.,24.0,0.,24.0,0.,24.0
1979-07-26 03:43:19.260 ,4,1,0.,24.0,0.,24.0,0.,24.0,0.,24.0
1979-07-26 03:43:43.260 ,4,0,0.,24.0,0.,24.0,0.,24.0,0.,24.0
1979-07-26 03:44:07.260 ,3,1,0.,24.0,0.,24.0,0.,24.0,0.,24.0
1979-07-26 03:44:31.260 ,3,0,0.,24.0,0.,24.0,0.,24.0,0.,24.0
1979-07-26 03:44:55.260 ,2,1,0.,24.0,0.,24.0,0.,24.0,0.,24.0
1979-07-26 03:45:19.260 ,2,0,0.,24.0,0.,24.0,0.,24.0,0.,24.0
1979-07-26 03:45:43.260 ,1,1,0.,24.0,0.,24.0,0.,24.0,0.,24.0
1979-07-26 03:46:07.260 ,1,0,0.,24.0,0.,24.0,0.,24.0,0.,24.0
1979-07-26 03:46:31.260 ,0,1,0.,24.0,0.,24.0,0.,24.0,0.,24.0
1979-07-26 03:46:55.260 ,0,0,0.,24.0,0.,24.0,0.,24.0,0.,24.0
1979-07-26 03:47:19.260 ,0,1,0.,24.0,0.,24.0,0.,24.0,0.,24.0
1979-07-26 03:47:43.260 ,0,0,0.,24.0,0.,24.0,0.,24.0,0.,24.0
1979-07-26 03:48:07.260 ,1,1,0.,24.0,0.,24.0,0.,24.0,0.,24.0
1979-07-26 03:48:31.260 ,1,0,0.,24.0,0.,24.0,0.,24.0,0.,24.0
1979-07-26 03:48:55.260 ,2,1,0.,24.0,0.,24.0,0.,24.0,0.,24.0
1979-07-26 03:49:19.260 ,2,0,0.,24.0,0.,24.0,0.,24.0,0.,24.0
1979-07-26 03:49:43.260 ,3,1,0.,24.0,0.,24.0,0.,24.0,0.,24.0
1979-07-26 03:50:07.260 ,3,0,0.,24.0,0.,24.0,0.,24.0,0.,24.0
1979-07-26 03:50:31.260 ,4,1,0.,24.0,0.,24.0,0.,24.0,0.,24.0
1979-07-26 03:50:55.260 ,4,0,0.,24.0,0.,24.0,0.,24.0,0.,24.0
1979-07-26 03:51:19.260 ,5,1,0.,24.0,0.,24.0,0.,24.0,0.,24.0
1979-07-26 03:51:43.260 ,5,0,0.,24.0,0.,24.0,0.,24.0,0.,24.0
1979-07-26 03:52:07.260 ,6,1,0.,24.0,0.,24.0,0.,24.0,0.,24.0
1979-07-26 03:52:31.260 ,6,0,0.,24.0,0.,24.0,0.,24.0,0.,24.0
1979-07-26 03:52:55.260 ,7,1,0.,24.0,0.,24.0,0.,24.0,0.,24.0
1979-07-26 03:53:19.260 ,7,0,0.,24.0,0.,24.0,0.,24.0,0.,24.0
1979-07-26 03:53:43.260 ,7,1,0.,24.0,0.,24.0,0.,24.0,0.,24.0
1979-07-26 03:54:07.260 ,7,0,0.,24.0,0.,24.0,0.,24.0,0.,24.0
1979-07-26 03:54:31.260 ,6,1,0.,24.0,0.,24.0,0.,24.0,0.,24.0
1979-07-26 03:54:55.260 ,6,0,0.,24.0,0.,24.0,0.,24.0,0.,24.0
1979-07-26 03:55:19.260 ,5,1,0.,24.0,0.,24.0,0.,24.0,0.,24.0
1979-07-26 03:55:43.260 ,5,0,0.,24.0,0.,24.0,0.,24.0,0.,24.0
1979-07-26 03:56:07.260 ,4,1,0.,24.0,0.,24.0,0.,24.0,0.,24.0
1979-07-26 03:56:31.260 ,4,0,0.,24.0,0.,24.0,0.,24.0,0.,24.0
1979-07-26 03:56:55.260 ,3,1,0.,24.0,0.,24.0,0.,24.0,0.,24.0
1979-07-26 03:57:19.260 ,3,0,0.,24.0,0.,24.0,0.,24.0,0.,24.0
1979-07-26 03:57:43.260 ,2,1,0.,24.0,0.,24.0,0.,24.0,0.,24.0
1979-07-26 03:58:07.260 ,2,0,0.,24.0,0.,24.0,0.,24.0,0.,24.0
1979-07-26 03:58:31.260 ,1,1,0.,24.0,0.,24.0,0.,24.0,0.,24.0
1979-07-26 03:58:55.260 ,1,0,0.,24.0,0.,24.0,0.,24.0,0.,24.0
1979-07-26 03:59:19.260 ,0,1,0.,24.0,0.,24.0,0.,24.0,0.,24.0
1979-07-26 03:59:43.260 ,0,0,1.,24.0,0.,24.0,0.,24.0,0.,24.0
1979-07-26 04:00:07.260 ,0,1,0.,24.0,0.,24.0,0.,24.0,0.,24.0
1979-07-26 04:00:31.260 ,0,0,0.,24.0,0.,24.0,0.,24.0,0.,24.0
1979-07-26 04:00:55.260 ,1,1,0.,24.0,0.,24.0,0.,24.0,0.,24.0
1979-07-26 04:01:19.260 ,1,0,0.,24.0,0.,24.0,0.,24.0,0.,24.0
1979-07-26 04:01:43.260 ,2,1,0.,24.0,0.,24.0,0.,24.0,0.,24.0
1979-07-26 04:02:07.260 ,2,0,0.,24.0,0.,24.0,0.,24.0,0.,24.0
1979-07-26 04:02:31.260 ,3,1,0.,24.0,0.,24.0,0.,24.0,0.,24.0
1979-07-26 04:02:55.260 ,3,0,0.,24.0,0.,24.0,0.,24.0,0.,24.0
1979-07-26 04:03:19.260 ,4,1,0.,24.0,0.,24.0,0.,24.0,0.,24.0
1979-07-26 04:03:43.260 ,4,0,0.,24.0,0.,24.0,0.,24.0,0.,24.0
1979-07-26 04:04:07.260 ,5,1,0.,24.0,0.,24.0,0.,24.0,0.,24.0
1979-07-26 04:04:31.260 ,5,0,0.,24.0,0.,24.0,0.,24.0,0.,24.0
1979-07-26 04:04:55.260 ,6,1,0.,24.0,0.,24.0,0.,24.0,0.,24.0
1979-07-26 04:05:19.260 ,6,0,0.,24.0,0.,24.0,0.,24.0,0.,24.0
1979-07-26 04:05:43.260 ,7,1,0.,24.0,0.,24.0,0.,24.0,0.,24.0
1979-07-26 04:06:07.260 ,7,0,0.,24.0,0.,24.0,0.,24.0,0.,24.0
1979-07-26 04:06:31.260 ,7,1,0.,24.0,0.,24.0,0.,24.0,0.,24.0
1979-07-26 04:06:55.260 ,7,0,0.,24.0,0.,24.0,0.,24.0,0.,24.0
1979-07-26 04:07:19.260 ,6,1,0.,24.0,0.,24.0,0.,24.0,0.,24.0
1979-07-26 04:07:43.260 ,6,0,0.,24.0,0.,24.0,0.,24.0,0.,24.0
1979-07-26 04:08:07.260 ,5,1,0.,24.0,0.,24.0,0.,24.0,0.,24.0
1979-07-26 04:08:31.260 ,5,0,0.,24.0,0.,24.0,0.,24.0,0.,24.0
1979-07-26 04:08:55.260 ,4,1,0.,24.0,0.,24.0,0.,24.0,0.,24.0
1979-07-26 04:09:19.260 ,4,0,0.,24.0,0.,24.0,0.,24.0,0.,24.0
1979-07-26 04:09:43.260 ,3,1,0.,24.0,0.,24.0,0.,24.0,0.,24.0
1979-07-26 04:10:07.260 ,3,0,0.,24.0,0.,24.0,0.,24.0,0.,24.0
1979-07-26 04:10:31.260 ,2,1,0.,24.0,0.,24.0,0.,24.0,0.,24.0
1979-07-26 04:10:55.260 ,2,0,0.,24.0,0.,24.0,0.,24.0,0.,24.0
1979-07-26 04:11:19.260 ,1,1,0.,24.0,0.,24.0,0.,24.0,0.,24.0
1979-07-26 04:11:43.260 ,1,0,0.,24.0,0.,24.0,0.,24.0,0.,24.0
1979-07-26 04:12:07.260 ,0,1,0.,24.0,0.,24.0,0.,24.0,0.,24.0
1979-07-26 04:12:31.260 ,0,0,0.,24.0,0.,24.0,0.,24.0,0.,24.0
1979-07-26 04:12:55.260 ,0,1,0.,24.0,0.,24.0,0.,24.0,0.,24.0
1979-07-26 04:13:19.260 ,0,0,0.,24.0,0.,24.0,0.,24.0,0.,24.0
1979-07-26 04:13:43.260 ,1,1,0.,24.0,0.,24.0,0.,24.0,0.,24.0
1979-07-26 04:14:07.260 ,1,0,0.,24.0,0.,24.0,0.,24.0,0.,24.0
1979-07-26 04:14:31.260 ,2,1,0.,24.0,0.,24.0,0.,24.0,0.,24.0
1979-07-26 04:14:55.260 ,2,0,0.,24.0,0.,24.0,0.,24.0,0.,24.0
1979-07-26 04:15:19.260 ,3,1,0.,24.0,0.,24.0,0.,24.0,0.,24.0
1979-07-26 04:15:43.260 ,3,0,0.,24.0,0.,24.0,0.,24.0,0.,24.0
1979-07-26 04:16:07.260 ,4,1,0.,24.0,0.,24.0,0.,24.0,0.,24.0
1979-07-26 04:16:31.260 ,0,0,0.,24.0,0.,24.0,0.,24.0,0.,24.0
1979-07-26 04:16:55.260 ,5,1,0.,24.0,0.,24.0,0.,24.0,0.,24.0
1979-07-26 04:17:19.260 ,5,0,0.,24.0,0.,24.0,0.,24.0,0.,24.0
1979-07-26 04:17:43.260 ,6,1,0.,24.0,0.,24.0,0.,24.0,0.,24.0
1979-07-26 04:18:07.260 ,6,0,0.,24.0,0.,24.0,0.,24.0,0.,24.0
1979-07-26 04:18:31.260 ,7,0,0.,24.0,0.,24.0,0.,24.0,0.,24.0
1979-07-26 04:18:55.260 ,7,0,0.,24.0,0.,24.0,0.,24.0,0.,24.0
1979-07-26 04:19:19.260 ,5,1,0.,24.0,0.,24.0,0.,24.0,0.,24.0
1979-07-26 04:19:43.260 ,1,1,0.,24.0,0.,24.0,0.,24.0,0.,24.0
1979-07-26 04:20:07.260 ,2,1,0.,24.0,0.,24.0,0.,24.0,0.,24.0
1979-07-26 04:20:31.260 ,6,1,0.,24.0,0.,24.0,0.,24.0,0.,24.0
1979-07-26 04:20:55.260 ,5,1,0.,24.0,0.,24.0,0.,24.0,0.,24.0
1979-07-26 04:21:19.260 ,1,1,0.,24.0,0.,24.0,0.,24.0,0.,24.0
1979-07-26 04:21:43.260 ,2,1,0.,24.0,0.,24.0,0.,24.0,0.,24.0
1979-07-26 04:22:07.260 ,6,1,0.,24.0,0.,24.0,0.,24.0,0.,24.0
1979-07-26 04:22:31.260 ,5,1,0.,24.0,0.,24.0,0.,24.0,0.,24.0
1979-07-26 04:22:55.260 ,1,1,0.,24.0,0.,24.0,0.,24.0,0.,24.0
1979-07-26 04:23:19.260 ,2,1,0.,24.0,0.,24.0,0.,24.0,0.,24.0
1979-07-26 04:23:43.260 ,6,1,0.,24.0,0.,24.0,0.,24.0,0.,24.0
1979-07-26 04:24:07.260 ,5,1,0.,24.0,0.,24.0,0.,24.0,0.,24.0
1979-07-26 04:24:31.260 ,1,1,0.,24.0,0.,24.0,0.,24.0,0.,24.0
1979-07-26 04:24:55.260 ,2,1,0.,24.0,0.,24.0,0.,24.0,0.,24.0
1979-07-26 04:25:19.260 ,6,1,0.,24.0,0.,24.0,0.,24.0,0.,24.0
1979-07-26 04:25:43.260 ,5,1,0.,24.0,0.,24.0,0.,24.0,0.,24.0
1979-07-26 04:26:07.260 ,1,1,0.,24.0,0.,24.0,0.,24.0,0.,24.0
1979-07-26 04:26:31.260 ,2,1,0.,24.0,0.,24.0,0.,24.0,1.,24.0
1979-07-26 04:26:55.260 ,6,1,0.,24.0,0.,24.0,0.,24.0,0.,24.0
1979-07-26 04:27:19.260 ,5,1,0.,24.0,0.,24.0,0.,24.0,0.,24.0
1979-07-26 04:27:43.260 ,1,1,0.,24.0,0.,24.0,0.,24.0,0.,24.0
1979-07-26 04:28:07.260 ,0,0,0.,24.0,0.,24.0,0.,24.0,0.,24.0
1979-07-26 04:28:31.260 ,6,1,0.,24.0,0.,24.0,0.,24.0,0.,24.0
1979-07-26 04:28:55.260 ,5,1,0.,24.0,0.,24.0,0.,24.0,0.,24.0
1979-07-26 04:29:19.260 ,1,1,0.,24.0,0.,24.0,0.,24.0,0.,24.0
1979-07-26 04:29:43.260 ,0,0,0.,24.0,0.,24.0,0.,24.0,0.,24.0
1979-07-26 04:30:07.260 ,0,0,0.,24.0,0.,24.0,0.,24.0,0.,24.0
1979-07-26 04:30:31.260 ,5,1,0.,24.0,0.,24.0,0.,24.0,0.,24.0
1979-07-26 04:30:55.260 ,5,0,0.,24.0,0.,24.0,0.,24.0,0.,24.0
1979-07-26 04:31:19.260 ,4,1,1.,24.0,0.,24.0,0.,24.0,0.,24.0
1979-07-26 04:31:43.260 ,4,0,0.,24.0,0.,24.0,0.,24.0,0.,24.0
1979-07-26 04:32:07.260 ,3,1,0.,24.0,0.,24.0,0.,24.0,0.,24.0
1979-07-26 04:32:31.260 ,3,0,0.,24.0,0.,24.0,0.,24.0,0.,24.0
1979-07-26 04:32:55.260 ,2,1,0.,24.0,0.,24.0,0.,24.0,0.,24.0
1979-07-26 04:33:19.260 ,2,0,0.,24.0,0.,24.0,0.,24.0,0.,24.0
1979-07-26 04:33:43.260 ,1,1,0.,24.0,0.,24.0,0.,24.0,0.,24.0
1979-07-26 04:34:07.260 ,1,0,0.,24.0,0.,24.0,0.,24.0,0.,24.0
1979-07-26 04:34:31.260 ,0,1,0.,24.0,0.,24.0,0.,24.0,0.,24.0
1979-07-26 04:34:55.260 ,0,0,0.,24.0,0.,24.0,0.,24.0,0.,24.0
1979-07-26 04:35:19.260 ,0,1,0.,24.0,0.,24.0,0.,24.0,0.,24.0
1979-07-26 04:35:43.260 ,0,0,0.,24.0,0.,24.0,0.,24.0,0.,24.0
1979-07-26 04:36:07.260 ,1,1,0.,24.0,0.,24.0,0.,24.0,0.,24.0
1979-07-26 04:36:31.260 ,1,0,0.,24.0,0.,24.0,0.,24.0,0.,24.0
1979-07-26 04:36:55.250 ,2,1,0.,24.0,0.,24.0,0.,24.0,0.,24.0
1979-07-26 04:37:19.250 ,2,0,0.,24.0,0.,24.0,0.,24.0,0.,24.0
1979-07-26 04:37:43.250 ,3,1,0.,24.0,0.,24.0,0.,24.0,0.,24.0
1979-07-26 04:38:07.250 ,3,0,0.,24.0,0.,24.0,0.,24.0,0.,24.0
1979-07-26 04:38:31.250 ,4,1,0.,24.0,0.,24.0,0.,24.0,0.,24.0
1979-07-26 04:38:55.250 ,4,0,0.,24.0,0.,24.0,0.,24.0,0.,24.0
1979-07-26 04:39:19.250 ,5,1,0.,24.0,0.,24.0,0.,24.0,0.,24.0
1979-07-26 04:39:43.250 ,5,0,0.,24.0,0.,24.0,0.,24.0,0.,24.0
1979-07-26 04:40:07.250 ,6,1,0.,24.0,0.,24.0,0.,24.0,0.,24.0
1979-07-26 04:40:31.250 ,6,0,0.,24.0,0.,24.0,0.,24.0,0.,24.0
1979-07-26 04:40:55.250 ,7,1,0.,24.0,0.,24.0,0.,24.0,0.,24.0
1979-07-26 04:41:19.250 ,7,0,0.,24.0,0.,24.0,0.,24.0,0.,24.0
1979-07-26 04:41:43.250 ,7,1,0.,24.0,0.,24.0,0.,24.0,0.,24.0
1979-07-26 04:42:07.250 ,7,0,0.,24.0,0.,24.0,0.,24.0,0.,24.0
1979-07-26 04:42:31.250 ,6,1,0.,24.0,0.,24.0,0.,24.0,0.,24.0
1979-07-26 04:42:55.250 ,6,0,0.,24.0,0.,24.0,0.,24.0,0.,24.0
1979-07-26 04:43:19.250 ,5,1,0.,24.0,0.,24.0,0.,24.0,0.,24.0
1979-07-26 04:43:43.250 ,5,0,0.,24.0,0.,24.0,0.,24.0,0.,24.0
1979-07-26 04:44:07.250 ,4,1,0.,24.0,0.,24.0,0.,24.0,0.,24.0
1979-07-26 04:44:31.250 ,4,0,0.,24.0,0.,24.0,0.,24.0,0.,24.0
1979-07-26 04:44:55.250 ,3,1,0.,24.0,0.,24.0,0.,24.0,0.,24.0
1979-07-26 04:45:19.250 ,3,0,0.,24.0,0.,24.0,0.,24.0,0.,24.0
1979-07-26 04:45:43.250 ,2,1,0.,24.0,0.,24.0,0.,24.0,0.,24.0
1979-07-26 04:46:07.250 ,2,0,0.,24.0,0.,24.0,0.,24.0,0.,24.0
1979-07-26 04:46:31.250 ,1,1,0.,24.0,0.,24.0,0.,24.0,0.,24.0
1979-07-26 04:46:55.250 ,1,0,0.,24.0,0.,24.0,0.,24.0,0.,24.0
1979-07-26 04:47:19.250 ,0,1,1.,24.0,0.,24.0,0.,24.0,0.,24.0
1979-07-26 04:47:43.250 ,0,0,0.,24.0,0.,24.0,0.,24.0,0.,24.0
1979-07-26 04:48:07.250 ,0,1,0.,24.0,0.,24.0,0.,24.0,0.,24.0
1979-07-26 04:48:31.250 ,0,0,1.,24.0,0.,24.0,0.,24.0,0.,24.0
1979-07-26 04:48:55.250 ,1,1,0.,24.0,0.,24.0,0.,24.0,0.,24.0
1979-07-26 04:49:19.250 ,1,0,0.,24.0,0.,24.0,0.,24.0,0.,24.0
1979-07-26 04:49:43.250 ,2,1,0.,24.0,0.,24.0,0.,24.0,0.,24.0
1979-07-26 04:50:07.250 ,2,0,0.,24.0,0.,24.0,0.,24.0,0.,24.0
1979-07-26 04:50:31.250 ,3,1,0.,24.0,0.,24.0,0.,24.0,0.,24.0
1979-07-26 04:50:55.250 ,3,0,0.,24.0,0.,24.0,0.,24.0,0.,24.0
1979-07-26 04:51:19.250 ,4,1,0.,24.0,0.,24.0,0.,24.0,0.,24.0
1979-07-26 04:51:43.250 ,4,0,0.,24.0,0.,24.0,0.,24.0,0.,24.0
1979-07-26 04:52:07.250 ,5,1,0.,24.0,0.,24.0,0.,24.0,0.,24.0
1979-07-26 04:52:31.250 ,5,0,0.,24.0,0.,24.0,0.,24.0,0.,24.0
1979-07-26 04:52:55.250 ,6,1,0.,24.0,0.,24.0,0.,24.0,0.,24.0
1979-07-26 04:53:19.250 ,6,0,0.,24.0,0.,24.0,0.,24.0,0.,24.0
1979-07-26 04:53:43.250 ,7,1,0.,24.0,0.,24.0,0.,24.0,0.,24.0
1979-07-26 04:54:07.250 ,7,0,0.,24.0,0.,24.0,0.,24.0,0.,24.0
1979-07-26 04:54:31.250 ,7,1,0.,24.0,0.,24.0,0.,24.0,0.,24.0
1979-07-26 04:54:55.250 ,7,0,0.,24.0,0.,24.0,0.,24.0,0.,24.0
1979-07-26 04:55:19.250 ,6,1,0.,24.0,0.,24.0,0.,24.0,0.,24.0
1979-07-26 04:55:43.250 ,6,0,0.,24.0,0.,24.0,0.,24.0,0.,24.0
1979-07-26 04:56:07.250 ,5,1,0.,24.0,0.,24.0,0.,24.0,0.,24.0
1979-07-26 04:56:31.250 ,5,0,0.,24.0,0.,24.0,0.,24.0,0.,24.0
1979-07-26 04:56:55.250 ,4,1,0.,24.0,0.,24.0,0.,24.0,0.,24.0
1979-07-26 04:57:19.250 ,4,0,0.,24.0,0.,24.0,0.,24.0,0.,24.0
1979-07-26 04:57:43.250 ,3,1,0.,24.0,0.,24.0,0.,24.0,0.,24.0
1979-07-26 04:58:07.250 ,3,0,0.,24.0,0.,24.0,0.,24.0,0.,24.0
1979-07-26 04:58:31.250 ,2,1,0.,24.0,0.,24.0,0.,24.0,0.,24.0
1979-07-26 04:58:55.250 ,2,0,0.,24.0,0.,24.0,0.,24.0,0.,24.0
1979-07-26 04:59:19.250 ,1,1,0.,24.0,0.,24.0,0.,24.0,0.,24.0
1979-07-26 04:59:43.250 ,1,0,0.,24.0,0.,24.0,0.,24.0,0.,24.0
1979-07-26 05:00:07.250 ,0,1,0.,24.0,0.,24.0,0.,24.0,0.,24.0
1979-07-26 05:00:31.250 ,0,0,0.,24.0,0.,24.0,0.,24.0,0.,24.0
1979-07-26 05:00:55.250 ,0,1,0.,24.0,0.,24.0,0.,24.0,0.,24.0
1979-07-26 05:01:19.250 ,0,0,0.,24.0,0.,24.0,0.,24.0,0.,24.0
1979-07-26 05:01:43.250 ,1,1,0.,24.0,0.,24.0,0.,24.0,0.,24.0
1979-07-26 05:02:07.250 ,1,0,0.,24.0,0.,24.0,0.,24.0,0.,24.0
1979-07-26 05:02:31.250 ,2,1,0.,24.0,0.,24.0,0.,24.0,0.,24.0
1979-07-26 05:02:55.250 ,2,0,0.,24.0,0.,24.0,0.,24.0,0.,24.0
1979-07-26 05:03:19.250 ,3,1,1.,24.0,0.,24.0,0.,24.0,0.,24.0
1979-07-26 05:03:43.250 ,3,0,0.,24.0,0.,24.0,0.,24.0,0.,24.0
1979-07-26 05:04:07.250 ,4,1,0.,24.0,0.,24.0,0.,24.0,0.,24.0
1979-07-26 05:04:31.250 ,4,0,0.,24.0,0.,24.0,0.,24.0,0.,24.0
1979-07-26 05:04:55.250 ,5,1,0.,24.0,0.,24.0,0.,24.0,0.,24.0
1979-07-26 05:05:19.250 ,5,0,0.,24.0,0.,24.0,0.,24.0,0.,24.0
1979-07-26 05:05:43.250 ,6,1,0.,24.0,0.,24.0,0.,24.0,0.,24.0
1979-07-26 05:06:07.250 ,6,0,0.,24.0,0.,24.0,0.,24.0,0.,24.0
1979-07-26 05:06:31.250 ,7,0,0.,24.0,0.,24.0,0.,24.0,0.,24.0
1979-07-26 05:06:55.250 ,7,0,0.,24.0,0.,24.0,0.,24.0,0.,24.0
1979-07-26 05:07:19.250 ,5,1,0.,24.0,0.,24.0,0.,24.0,0.,24.0
1979-07-26 05:07:43.250 ,1,1,0.,24.0,0.,24.0,0.,24.0,0.,24.0
1979-07-26 05:08:07.250 ,2,1,0.,24.0,0.,24.0,0.,24.0,0.,24.0
1979-07-26 05:08:31.250 ,6,1,0.,24.0,0.,24.0,0.,24.0,0.,24.0
1979-07-26 05:08:55.250 ,5,1,0.,24.0,0.,24.0,0.,24.0,0.,24.0
1979-07-26 05:09:19.250 ,1,1,0.,24.0,0.,24.0,0.,24.0,0.,24.0
1979-07-26 05:09:43.250 ,2,1,0.,24.0,0.,24.0,0.,24.0,0.,24.0
1979-07-26 05:10:07.250 ,6,1,0.,24.0,0.,24.0,0.,24.0,0.,24.0
1979-07-26 05:10:31.250 ,5,1,0.,24.0,0.,24.0,0.,24.0,0.,24.0
1979-07-26 05:10:55.250 ,1,1,0.,24.0,0.,24.0,0.,24.0,0.,24.0
1979-07-26 05:11:19.250 ,2,1,0.,24.0,0.,24.0,0.,24.0,0.,24.0
1979-07-26 05:11:43.250 ,6,1,0.,24.0,0.,24.0,0.,24.0,0.,24.0
1979-07-26 05:12:07.250 ,5,1,0.,24.0,0.,24.0,0.,24.0,0.,24.0
1979-07-26 05:12:31.250 ,1,1,0.,24.0,0.,24.0,0.,24.0,0.,24.0
1979-07-26 05:12:55.250 ,2,1,0.,24.0,0.,24.0,0.,24.0,0.,24.0
1979-07-26 05:13:19.250 ,6,1,0.,24.0,0.,24.0,0.,24.0,0.,24.0
1979-07-26 05:13:43.250 ,5,1,0.,24.0,0.,24.0,0.,24.0,0.,24.0
1979-07-26 05:14:07.250 ,1,1,0.,24.0,0.,24.0,0.,24.0,0.,24.0
1979-07-26 05:14:31.250 ,2,1,0.,24.0,0.,24.0,0.,24.0,0.,24.0
1979-07-26 05:14:55.250 ,6,1,0.,24.0,0.,24.0,0.,24.0,0.,24.0
1979-07-26 05:15:19.250 ,5,1,0.,24.0,0.,24.0,0.,24.0,0.,24.0
1979-07-26 05:15:43.250 ,1,1,0.,24.0,0.,24.0,0.,24.0,0.,24.0
1979-07-26 05:16:07.250 ,2,1,0.,24.0,0.,24.0,0.,24.0,0.,24.0
1979-07-26 05:16:31.250 ,6,1,0.,24.0,0.,24.0,0.,24.0,0.,24.0
1979-07-26 05:16:55.250 ,5,1,0.,24.0,0.,24.0,0.,24.0,0.,24.0
1979-07-26 05:17:19.250 ,1,1,0.,24.0,0.,24.0,0.,24.0,0.,24.0
1979-07-26 05:17:43.250 ,0,0,0.,24.0,0.,24.0,0.,24.0,0.,24.0
1979-07-26 05:18:07.250 ,0,0,0.,24.0,0.,24.0,0.,24.0,0.,24.0
1979-07-26 05:18:31.250 ,5,1,0.,24.0,0.,24.0,0.,24.0,0.,24.0
1979-07-26 05:18:55.250 ,5,0,0.,24.0,0.,24.0,0.,24.0,0.,24.0
1979-07-26 05:19:19.250 ,4,1,0.,24.0,0.,24.0,0.,24.0,0.,24.0
1979-07-26 05:19:43.250 ,4,0,0.,24.0,0.,24.0,0.,24.0,0.,24.0
1979-07-26 05:20:07.250 ,3,1,0.,24.0,0.,24.0,0.,24.0,0.,24.0
1979-07-26 05:20:31.250 ,3,0,0.,24.0,0.,24.0,0.,24.0,0.,24.0
1979-07-26 05:20:55.250 ,2,1,1.,24.0,0.,24.0,0.,24.0,0.,24.0
1979-07-26 05:21:19.250 ,2,0,0.,24.0,0.,24.0,0.,24.0,0.,24.0
1979-07-26 05:21:43.250 ,1,1,0.,24.0,0.,24.0,0.,24.0,0.,24.0
1979-07-26 05:22:07.250 ,1,0,0.,24.0,0.,24.0,0.,24.0,0.,24.0
1979-07-26 05:22:31.250 ,0,1,0.,24.0,0.,24.0,0.,24.0,0.,24.0
1979-07-26 05:22:55.250 ,0,0,0.,24.0,0.,24.0,0.,24.0,0.,24.0
1979-07-26 05:23:19.250 ,0,1,0.,24.0,0.,24.0,0.,24.0,0.,24.0
1979-07-26 05:23:43.250 ,0,0,0.,24.0,0.,24.0,0.,24.0,0.,24.0
1979-07-26 05:24:07.250 ,1,1,0.,24.0,0.,24.0,0.,24.0,0.,24.0
1979-07-26 05:24:31.250 ,1,0,0.,24.0,0.,24.0,0.,24.0,0.,24.0
1979-07-26 05:24:55.250 ,2,1,0.,24.0,0.,24.0,0.,24.0,0.,24.0
1979-07-26 05:25:19.250 ,2,0,0.,24.0,0.,24.0,0.,24.0,0.,24.0
1979-07-26 05:25:43.250 ,3,1,0.,24.0,0.,24.0,0.,24.0,0.,24.0
1979-07-26 05:26:07.250 ,3,0,0.,24.0,0.,24.0,0.,24.0,0.,24.0
1979-07-26 05:26:31.250 ,4,1,0.,24.0,0.,24.0,0.,24.0,0.,24.0
1979-07-26 05:26:55.250 ,4,0,0.,24.0,0.,24.0,0.,24.0,1.,24.0
1979-07-26 05:27:19.250 ,5,1,0.,24.0,0.,24.0,0.,24.0,0.,24.0
1979-07-26 05:27:43.250 ,5,0,0.,24.0,0.,24.0,0.,24.0,0.,24.0
1979-07-26 05:28:07.250 ,6,1,0.,24.0,0.,24.0,0.,24.0,0.,24.0
1979-07-26 05:28:31.250 ,6,0,0.,24.0,0.,24.0,0.,24.0,0.,24.0
1979-07-26 05:28:55.250 ,7,1,0.,24.0,0.,24.0,0.,24.0,0.,24.0
1979-07-26 05:29:19.250 ,7,0,0.,24.0,0.,24.0,0.,24.0,0.,24.0
1979-07-26 05:29:43.250 ,7,1,0.,24.0,0.,24.0,0.,24.0,0.,24.0
1979-07-26 05:30:07.250 ,7,0,0.,24.0,0.,24.0,0.,24.0,0.,24.0
1979-07-26 05:30:31.250 ,6,1,0.,24.0,0.,24.0,0.,24.0,0.,24.0
1979-07-26 05:30:55.250 ,6,0,0.,24.0,0.,24.0,0.,24.0,0.,24.0
1979-07-26 05:31:19.250 ,5,1,0.,24.0,0.,24.0,0.,24.0,0.,24.0
1979-07-26 05:31:43.250 ,5,0,0.,24.0,0.,24.0,0.,24.0,0.,24.0
1979-07-26 05:32:07.250 ,4,1,0.,24.0,0.,24.0,0.,24.0,0.,24.0
1979-07-26 05:32:31.250 ,4,0,0.,24.0,0.,24.0,0.,24.0,0.,24.0
1979-07-26 05:32:55.250 ,3,1,0.,24.0,0.,24.0,0.,24.0,0.,24.0
1979-07-26 05:33:19.250 ,3,0,0.,24.0,0.,24.0,0.,24.0,0.,24.0
1979-07-26 05:33:43.250 ,2,1,0.,24.0,0.,24.0,0.,24.0,0.,24.0
1979-07-26 05:34:07.250 ,2,0,0.,24.0,0.,24.0,0.,24.0,0.,24.0
1979-07-26 05:34:31.250 ,1,1,0.,24.0,0.,24.0,0.,24.0,0.,24.0